Location: *
(42.3377°N, 71.0868°W)
Time: 04:40:54
(UTC+00:00)

Cosmos 1461 - Pass Details

Date: 09 April 2020
Orbit: 507 x 659 km, 65.0° (Epoch: 28 May)

Event Time Altitude Azimuth Distance (km) Brightness Sun altitude
Rises 23:45:57 0° 333° (NNW) 2,888 7.2 -5.5°
Reaches altitude 10° 23:48:20 10° 341° (NNW) 2,003 6.2 -5.9°
Maximum altitude 23:52:35 38° 50° (NE) 989 3.9 -6.7°
Drops below altitude 10° 23:56:55 10° 118° (ESE) 2,054 5.1 -7.4°
Enters shadow 23:57:13 - 120° (ESE) 2,158 5.2 -7.5°
